Regional Weather Roundup
Issued by NWS Huntsville, AL

Home | Current Version | Previous Version | Text Only | Print | Product List | Glossary On
Versions: 1 2 3 4 5 6 7 8 9 10 11 12 13 14 15 16 17 18 19 20 21 22 23 24 25 26 27 28 29 30 31 32 33 34 35 36 37 38 39 40 41 42 43 44 45 46 47 48 49 50
000
ASUS44 KHUN 191210
RWRHUN

WEATHER ROUNDUP FOR THE TENNESSEE VALLEY
NATIONAL WEATHER SERVICE HUNTSVILLE AL
700 AM CDT SUN APR 19 2015

ALZ001>004-191300-
NORTHWEST ALABAMA

CITY           SKY/WX    TMP DP  RH WIND       PRES   REMARKS
SHOALS AIRPORT LGT RAIN  66  64  93 W6        29.70R FOG
6HR MIN TEMP:  65; 6HR MAX TEMP:  66; 6HR PCP:  0.80;

$$

ALZ005>007-016-191300-
NORTH CENTRAL ALABAMA

CITY           SKY/WX    TMP DP  RH WIND       PRES   REMARKS
DECATUR AP     CLOUDY    67  66  97 S15       29.71S
6HR MIN TEMP:  65; 6HR MAX TEMP:  67; 6HR PCP:  0.59;

HUNTSVILLE AP  CLOUDY    68  67  96 S9        29.71F
6HR MIN TEMP:  67; 6HR MAX TEMP:  68; 6HR PCP:  0.76;

HUN NWS/UAH      N/A     66  64  93 S9          N/A
MERIDIANVILLE  CLOUDY    64  61  88 S9G16     29.71F
REDSTONE ARSN  CLOUDY    66  66 100 S15       29.71F
VINEMONT AP    CLOUDY    66  64  94 S20G25    29.76R
$$

ALZ008>010-191300-
NORTHEAST ALABAMA

CITY           SKY/WX    TMP DP  RH WIND       PRES   REMARKS
ALBERTVILLE    CLOUDY    64  64 100 S8G17     29.76S
FORT PAYNE     HVY RAIN  66  61  82 SW9       29.76S
SCOTTSBORO AP  CLOUDY    66  66 100 SW3       29.76S
SCOTTSBORO HCN   N/A     66 N/A N/A MISG        N/A
VALLEY HEAD      N/A     66 N/A N/A MISG        N/A
$$

TNZ076-096-097-191300-
SOUTHEASTERN MIDDLE TENNESSEE

CITY           SKY/WX    TMP DP  RH WIND       PRES   REMARKS
TULLAHOMA      MOCLDY    64  63  94 CALM      29.73F
WINCHESTER     CLOUDY    64  64 100 E5        29.74F
$$

...SURROUNDING SITES...

CITY           SKY/WX    TMP DP  RH WIND       PRES   REMARKS
ATLANTA        LGT RAIN  67  64  90 SE8       29.86R VSB 3/4
ANNISTON       MOCLDY    70  65  84 S5        29.79F
BIRMINGHAM     RAIN      67  65  93 SW14G22   29.79R FOG
CHATTANOOGA    LGT RAIN  67  65  93 SE13      29.76F FOG
CORINTH        CLOUDY    66  64  94 SW7       29.69R
DALTON         CLOUDY    64  64 100 CALM      29.80S
GADSDEN        CLOUDY    68  63  83 S8        29.76F
GOLDEN TRNGL   MOCLDY    64  61  88 SW7       29.72S
HALEYVILLE       N/A     64  64 100 SW9G20    29.74R
JACKSON TN     CLOUDY    65  63  93 CALM      29.67S
MEMPHIS        LGT RAIN  65  63  93 S8        29.67R
NASHVILLE      LGT RAIN  65  64  97 SE7       29.70F FOG
OXFORD MS      CLOUDY    63  63 100 SW8       29.72R
ROME           CLOUDY    67  65  93 SE9       29.80R
SAVANNAH       CLOUDY    64  32  29 CALM      29.69S
TUPELO         MOCLDY    64  62  93 SW6       29.71R
TUSCALOOSA     RAIN      64  63  96 S5        29.76F FOG
$$

...GULF COAST WEATHER...

CITY           SKY/WX    TMP DP  RH WIND       PRES   REMARKS
GULFPORT       CLOUDY    72  69  90 NW6       29.76S
PASCAGOULA     CLOUDY    72  70  93 VRB3      29.75S
MOBILE         CLOUDY    70  69  97 VRB3      29.78R FOG
GULF SHORES    TSTM      70  67  88 NW6G21    29.76S
PENSACOLA      CLOUDY    72  68  87 S14       29.76R THUNDER
DESTIN         LGT RAIN  75  73  93 SE10G21   29.76F
PANAMA CITY    CLOUDY    75  74  95 S12G20    29.81F
APPALACHICOLA  PTCLDY    78  73  84 S12       29.83S
$$



USA.gov is the U.S. government's official web portal to all federal, state and local government web resources and services.